Greenville, ME

3:37 PM EST on December 12, 2017 (GMT -0500)
Greenville

Weather History for KGNR - April, 2014

Change the Weather History Date:

Tuesday, April 22, 2014

  Actual Average (KMLT) Record (KMLT)
Temperature  
Mean Temperature 48 °F -  
Max Temperature 55 °F 55 °F 78 °F (1977)
Min Temperature 42 °F 33 °F 19 °F (1947)
Degree Days  
Heating Degree Days 16    
Moisture  
Dew Point 39 °F    
Average Humidity 72    
Maximum Humidity 97    
Minimum Humidity 52    
Precipitation  
Precipitation 0.06 in - - ()
Sea Level Pressure  
Sea Level Pressure 29.60 in    
Wind  
Wind Speed 4 mph (ESE)    
Max Wind Speed 12 mph    
Max Gust Speed 18 mph    
Averages and records for this station are not official NWS values.
T = Trace of Precipitation, MM = Missing Value Source: NWS Daily Summary

Daily Weather History Graph

Daily Weather History Graph

Search for Another Location

Airport or City:

Trip Planner

Search our weather history database for the weather conditions in past years. The results will help you decide how hot, cold, wet, or windy it might be!

Date:

Astronomy

Apr. 22, 2014 Rise Set
Actual Time 5:40 AM EDT 7:33 PM EDT
Civil Twilight 5:09 AM EDT 8:05 PM EDT
Nautical Twilight 4:30 AM EDT 8:44 PM EDT
Astronomical Twilight 3:48 AM EDT 9:26 PM EDT
Moon 1:48 AM EDT (4/22) 12:11 PM EDT (4/22)
Length of Visible Light 14h 55m
Length of Day
13h 52m
Last Quarter, 46% of the Moon is Illuminated
Apr 22
Last Quarter
Apr 29
New
May 6
First Quarter
May 14
Full
May 21
Last Quarter

Hourly Weather History & Observations

Time (EDT) Temp. Windchill Dew Point Humidity Pressure Visibility Wind Dir Wind Speed Gust Speed Precip Events Conditions
12:56 AM 44.1 °F - 28.9 °F 55% 29.78 in - Calm Calm - N/A   Unknown
1:56 AM 46.9 °F - 32.0 °F 56% 29.73 in - North 3.5 mph - N/A   Unknown
2:56 AM 44.1 °F 42.5 °F 32.0 °F 63% 29.74 in - NNE 3.5 mph - N/A   Unknown
3:56 AM 46.0 °F - 36.0 °F 68% 29.72 in - Calm Calm - N/A   Unknown
4:56 AM 44.1 °F 42.5 °F 37.0 °F 76% 29.72 in - SSE 3.5 mph - 0.01 in   Unknown
5:56 AM 42.1 °F 39.2 °F 37.9 °F 85% 29.71 in - NE 4.6 mph - 0.02 in   Unknown
6:56 AM 43.0 °F - 37.9 °F 82% 29.70 in - Calm Calm - N/A   Unknown
7:56 AM 44.1 °F 41.5 °F 39.9 °F 85% 29.69 in - ESE 4.6 mph - 0.01 in   Unknown
8:56 AM 48.0 °F - 43.0 °F 83% 29.68 in - Calm Calm - 0.01 in   Unknown
9:56 AM 48.9 °F - 44.1 °F 83% 29.65 in - ESE 8.1 mph - N/A   Unknown
10:56 AM 52.0 °F - 43.0 °F 71% 29.64 in - Variable 4.6 mph - N/A   Unknown
11:56 AM 54.0 °F - 44.1 °F 69% 29.61 in - Variable 5.8 mph - N/A   Unknown
12:56 PM 54.0 °F - 42.1 °F 64% 29.60 in - SE 8.1 mph - N/A   Unknown
1:56 PM 54.0 °F - 42.1 °F 64% 29.59 in - SE 8.1 mph - N/A   Unknown
2:56 PM 54.0 °F - 43.0 °F 66% 29.55 in - SE 8.1 mph - N/A   Unknown
3:56 PM 55.9 °F - 43.0 °F 62% 29.52 in - SE 8.1 mph - N/A   Unknown
4:56 PM 55.0 °F - 42.1 °F 62% 29.50 in - SE 8.1 mph - N/A   Unknown
5:56 PM 53.1 °F - 36.0 °F 52% 29.48 in - SE 8.1 mph - N/A   Unknown
6:56 PM 50.0 °F - 36.0 °F 59% 29.50 in - SE 6.9 mph - N/A   Unknown
7:56 PM 48.0 °F - 37.9 °F 68% 29.50 in - ESE 9.2 mph - N/A   Unknown
8:56 PM 46.0 °F 41.9 °F 39.0 °F 76% 29.48 in - SE 8.1 mph - N/A   Unknown
9:56 PM 45.0 °F 39.3 °F 41.0 °F 86% 29.47 in - SE 11.5 mph 18.4 mph N/A   Unknown
10:56 PM 43.0 °F 38.2 °F 41.0 °F 93% 29.45 in - SE 8.1 mph 17.3 mph N/A   Unknown
11:56 PM 43.0 °F 38.8 °F 42.1 °F 97% 29.43 in - SE 6.9 mph - 0.01 in   Unknown